Location: Eisingen in Unterfranken
(49.7591°N, 9.8347°E)
Time: 12:59:23
(UTC+01:00)

N. Korean satellite - Pass Details

Date: 08 December 2022
Orbit: 407 x 441 km, 97.3° (Epoch: 05 February)

Event Time Altitude Azimuth Distance (km) Brightness Sun altitude
Rises 17:00:16 0° 178° (S) 2,468 10.5 -6.3°
Reaches altitude 10° 17:02:19 10° 183° (S) 1,607 9.7 -6.6°
Maximum altitude 17:05:42 50° 260° (W) 604 7.6 -7.1°
Drops below altitude 10° 17:09:08 10° 337° (NNW) 1,639 9.2 -7.6°
Sets 17:11:15 0° 343° (NNW) 2,524 10.1 -7.9°
